User: anonymous   Login
Location: ?????????
(38.5999°N, 22.7695°E)
Time: 04:52:49
(UTC+00:00)
Language:

OAO 3 Rocket - Orbit

View from above orbital plane
View from above orbital plane
View from above satellite
View from above satellite

Ground track
Ground track

The orbit data is extracted from the following two-line orbital elements,

1 06155U 72065B   24194.52795654  .00001596  00000-0  23667-3 0  9998
2 06155  35.0020 245.1986 0035557 325.7293  34.1114 14.74601872751771
Epoch (UTC): 12 July 2024 12:40:15
Eccentricity: 0.0035557
inclination: 35.0020°
perigee height: 621 km
apogee height: 671 km
right ascension of ascending node: 245.1986°
argument of perigee: 325.7293°
revolutions per day: 14.74601872
mean anomaly at epoch: 34.1114°
orbit number at epoch: 75177

The dashed part of the orbit path shows where the satellite is in the earth's shadow,  

DLR